Tracking 31011 objects as of 12-Jul-2025
HD Live streaming from Space Station
objects crossing your sky now

CZ-6A DEB

Track CZ-6A DEB now!
10-day predictions


NORAD ID: 56609
Int'l Code: 2022-151AEH
Perigee: 830.2 km
Apogee: 1,010.4 km
Inclination: 98.8 °
Period: 103.3 minutes
Semi major axis: 7291 km
RCS: Unknown
Launch date: November 11, 2022
Source: People's Republic of China (PRC)
Launch site: Taiyaun Space Center, China (TSC)

Note: This is SATELLITE DEBRIS
Your satellite tracking list
Your tracking list is empty




NASA's NSSDC Master Catalog

Two Line Element Set (TLE):
1 56609U 22151AEH 25185.18137879  .00000747  00000-0  55629-3 0  9990
2 56609  98.8351 158.0751 0123561 298.2622  60.6114 13.94415826111473
Source of the keplerian elements: AFSPC